Погода в Преображенке

Погода в Преображенке : погода сейчас, прогноз погоды и архив. Всё, что Вы хотите узнать о погоде в Преображенке!

Хотите узнать прогноз погоды в Преображенке? Тогда Вам сюда: Погода в Преображенке

Поиск расширенной информации на нашем сайте:

Другие новости

Новости СМИ2

Главная страница сайта

Новости сайта

03.07.2017

Напоминаем, что на нашем специализированном сайте Метеоцентр.Азия вы можете получить высокодетализированные автоматические прогнозы погоды по пунктам России, СНГ и мира в авиационном формате (включающие направление и скорость ветра, видимость, явления погоды, количество и форму облачности, нижнюю и верхнюю границу облачности).


Погода в Преображенке - сегодня

Время (UTC), дата Ветер
(°,м/с) 
Видим.   Явления Облачность Т
(°С)
Тd
(°С)
f(%) Тe
(°С)
Pmin
(гПа)
dP
(гПа)
Po
(мм)
O2
(г/м3)
Тmin Tmax R s Состояние
почвы
09 21.06.18 360 (С) 20000 м  гроза без осадков  9/9 600 м кучево-дожд. 
[Cb cap]
+25.8 +14 48 +34  997.8  -0.6  724  264           
15 21.06.18 тихо ()   н/о  {ливн. осадки}  9/4 600 м кучево-дожд., средняя, верхняя 
[Cb cap|Ac trans|Cs]
+17.8 +12.6 72 +23  1001.1  0.9  725  272           
18 21.06.18 тихо ()   н/о  местами туман поземный{ливн. осадки}  9/1 600 м кучево-дожд., средняя, верхняя 
[Cb cap|Ac trans|Ci fib]
+14 +12.9 93 +20  1002.1  0.6  726  276           
21 21.06.18 180 (Ю) 20000 м    9/0 средняя, верхняя 
[Ac trans|Ci fib]
+14.6 +13.5 93 +22  1002.3  0.2  726  275           
03 22.06.18 270 (З) 20000 м    9/3 600 м верхняя 
[Cu med, cong|Cc]
+24 +13.8 53 +31  1001.9  -0.1  727  266           
06 22.06.18 290 (З) 20000 м    10/8 600 м кучево-дожд., верхняя 
[Cb cap|Cs]
+26.4 +7.8 31 +26  1001.4  -0.3  726  266           
09 22.06.18 340 (С) 20000 м    9/6 600 м кучево-дожд., средняя, верхняя 
[Cb cap|Ac As|Cs]
+24.9 +11.8 44 +29  1002.1  0.6  727  266           
15 22.06.18 тихо ()   н/о    8/3 600 м кучево-дожд., верхняя 
[Cb cap|Cc]
+17.6 +13.2 75 +24  1005.3  0.8  728  273           
18 22.06.18 тихо ()   н/о  местами туман поземный  6/1 600 м кучево-дожд., верхняя 
[Cb cap|Ci fib]
+12.5 +11.6 94 +16  1006.8  0.9  729  279           
21 22.06.18 тихо ()   20000 м    6/0 средняя, верхняя 
[Ac lent|Ci]
+11.4 +10 91 +13  1007.8  0.8  730  280           
03 23.06.18 340 (С) 20000 м    6/4 600 м верхняя 
[Cu med, cong|Ci fib]
+23.5 +11 45 +27  1006.7  -0.4  730  269           
06 23.06.18 340 (С) 5{10}  20000 м    6/5 600 м верхняя 
[Cu med, cong|Ci fib]
+23.4 +11.1 46 +27  1006.3  -0.4  730  269           
09 23.06.18 020 (С) 20000 м  гроза без осадков  9/8 600 м кучево-дожд., верхняя 
[Cb cap|Ci fib]
+23.2 +12.1 50 +28  1006.7  0.4  730  269           
15 23.06.18 тихо ()   н/о    3/0 верхняя 
[Ci fib]
+15.8 +14 89 +23  1008.2  0.3  731  275           
18 23.06.18 тихо ()   н/о  дымка  ясно 
+11 +10.4 96 +13  1009.3  0.4  731  281           
21 23.06.18 тихо ()   0500 м  туман  ясно 
+11 +10.8 99 +14  1009.8  0.5  731  281           
03 24.06.18 050 (СВ) 20000 м    6/6 600 м 
[Cu med, cong]
+25 +11.9 44 +29  1008  -0.4  731  268           
06 24.06.18 020 (С) 20000 м    8/8 600 м кучево-дожд. 
[Cb cap]
+26.6 +9.4 34 +28  1006.9  -1  730  267           
09 24.06.18 050 (СВ) 20000 м    8/8 600 м кучево-дожд. 
[Cb cap]
+26.8 +11.2 38 +30  1006  -0.9  730  266           
15 24.06.18 тихо ()   н/о    4/0 верхняя 
[Ci fib]
+17.4 +13.7 79 +25  1007.5  730  274           
18 24.06.18 тихо ()   н/о    ясно 
+11.2 +9.4 89 +12  1009  0.8  731  281           
21 24.06.18 тихо ()   20000 м    ясно 
+11.4 +10.6 95 +14  1009.7  0.7  731  281           
03 25.06.18 320 (СЗ) 20000 м    1/1 600 м 
[Cu med, cong]
+25.9 +13.1 45 +32  1008.2  0.1  731  267           
06 25.06.18 340 (С) 20000 м    8/8 600 м кучево-дожд. 
[Cb cap]
+28.6 +10.2 32 +31  1007.3  -0.6  731  265           
09 25.06.18 360 (С) 20000 м    4/4 600 м кучево-дожд. 
[Cb cap]
+29.6 +9.2 28 +30  1006.5  -0.7  730  264           
Время (UTC), дата Ветер
(°,м/с) 
Видим.   Явления Облачность Т
(°С)
Тd
(°С)
f(%) Тe
(°С)
Pmin
(гПа)
dP
(гПа)
Po
(мм)
O2
(г/м3)
Тmin Tmax R s Состояние
почвы

Для получения пояснительной информации подведите курсор к названию столбца.

ПОГОДА в Преображенке - архив

Всё, что Вы хотите узнать о погоде в Преображенке - удобно и подробно!

Выберите нужную дату (начиная с 1 января 2015* года) и нажмите кнопку "Найти".
Будут отображены архивные сводки погоды по пункту Преображенка, начиная с указанной даты.


Отображать данные в формате CSV (для использования в таблицах Excel)


Внимание! Наш архив погоды предназначен исключительно для личного некоммерческого использования в познавательных целях. Если Вам необходимы официальные справки о состоянии погоды (для производственных, юридических, коммерческих и т.п. целей), обращайтесь в органы Росгидромета.

*Примечание: данная дата относится к архиву по метеостанциям СССР (Россия, СНГ, Балтия).
Архив по метеостанциям Зарубежной Европы и Азии (кроме Китая) хранится 10 дней, по другим регионам земного шара (Китай, Африка, Америка, Австралия, Океания) - 1 день.

Преображенка - район местоположения метеостанции


Название, широта, долгота, высота метеостанции:
Преображенка 60.1°ш. 108°д. 292 м над ур. моря [Российская Федерация]

Дополнительная информация

В oтличие oт бoльшинства пoгoдных сайтoв мы публикуем пoдрoбную метеoинфoрмацию в детальнoм прoфессиoнальнoм фoрмате.

Характеристики температуры и влажнoсти вoздуха измеряются на высoте 2 м в тени вдали oт зданий и деревьев.
Скoрoсть ветра измеряется на высoте 10 м (на урoвне рoста челoвека скoрoсть ветра ниже в 1.5-2 раза). Если метеoстанция нахoдится в гoрoде или в лесу, тo скoрoсть ветра занижена на 2-4 м/с пo сравнению с oткрытым местoм. Скoрoсть ветра над акватoриями крупных рек и oзёр, а также на вершинах хoлмoв на 2-5 м/с выше, чем в oбычных услoвиях.
Атмoсфернoе давление в разных тoчках местнoсти мoжет значительнo oтличаться oт давления на метеoстанции, в зависимoсти oт услoвий рельефа (при пoдъёме на 10 м давление пoнижается примернo на 1 мм рт.ст.).